Beatrice, NE

5:58 PM CDT on October 16, 2017 (GMT -0500)
Beatrice Municipal

Weather History for KBIE - May, 2013

Change the Weather History Date:

Monday, May 13, 2013

  Actual Average Record
Temperature  
Mean Temperature 66 °F -  
Max Temperature 83 °F 72 °F 92 °F (1956)
Min Temperature 48 °F 49 °F 30 °F (1997)
Growing Degree Days 16 (Base 50)    
Moisture  
Dew Point 41 °F    
Average Humidity 44    
Maximum Humidity 71    
Minimum Humidity 18    
Precipitation  
Precipitation 0.00 in - - ()
Sea Level Pressure  
Sea Level Pressure 30.01 in    
Wind  
Wind Speed 9 mph (South)    
Max Wind Speed 20 mph    
Max Gust Speed 25 mph    
Visibility 10 miles    
Events      
Averages and records for this station are not official NWS values.
T = Trace of Precipitation, MM = Missing Value Source: NWS Daily Summary

Daily Weather History Graph

Daily Weather History Graph

Search for Another Location

Airport or City:

Trip Planner

Search our weather history database for the weather conditions in past years. The results will help you decide how hot, cold, wet, or windy it might be!

Date:

Astronomy

May. 13, 2013 Rise Set
Actual Time 6:12 AM CDT 8:34 PM CDT
Civil Twilight 5:41 AM CDT 9:05 PM CDT
Nautical Twilight 5:04 AM CDT 9:43 PM CDT
Astronomical Twilight 4:22 AM CDT 10:25 PM CDT
Moon 8:59 AM CDT (5/13) 11:44 PM CDT (5/13)
Length of Visible Light 15h 23m
Length of Day
14h 21m
Waxing Crescent, 12% of the Moon is Illuminated
May 13
Waxing Crescent
May 17
First Quarter
May 24
Full
May 31
Last Quarter
Jun 8
New

Hourly Weather History & Observations

Time (CDT) Temp. Dew Point Humidity Pressure Visibility Wind Dir Wind Speed Gust Speed Precip Events Conditions
12:15 AM 51.8 °F 37.4 °F 58% 30.12 in 10.0 mi SSE 6.9 mph - N/A   Clear
12:35 AM 52.2 °F 37.6 °F 58% 30.12 in 10.0 mi SSE 6.9 mph - N/A   Clear
12:55 AM 51.6 °F 37.6 °F 59% 30.12 in 10.0 mi South 6.9 mph - N/A   Clear
1:15 AM 51.1 °F 37.8 °F 60% 30.12 in 10.0 mi South 5.8 mph - N/A   Clear
1:35 AM 51.1 °F 37.6 °F 60% 30.12 in 10.0 mi South 6.9 mph - N/A   Clear
1:55 AM 51.1 °F 37.8 °F 60% 30.11 in 10.0 mi SSE 6.9 mph - N/A   Clear
2:15 AM 50.7 °F 38.3 °F 62% 30.11 in 10.0 mi SSE 6.9 mph - N/A   Clear
2:35 AM 51.4 °F 38.1 °F 60% 30.10 in 10.0 mi SSE 5.8 mph - N/A   Clear
2:55 AM 51.8 °F 37.8 °F 59% 30.10 in 10.0 mi South 5.8 mph - N/A   Clear
3:15 AM 51.8 °F 37.8 °F 59% 30.10 in 10.0 mi SSE 4.6 mph - N/A   Clear
3:35 AM 51.3 °F 38.3 °F 61% 30.10 in 10.0 mi SSE 3.5 mph - N/A   Clear
3:55 AM 50.5 °F 38.7 °F 64% 30.10 in 10.0 mi SE 4.6 mph - N/A   Clear
4:15 AM 50.7 °F 38.8 °F 64% 30.09 in 10.0 mi SSE 5.8 mph - N/A   Clear
4:35 AM 50.2 °F 38.7 °F 65% 30.08 in 10.0 mi SSE 5.8 mph - N/A   Clear
4:55 AM 49.1 °F 39.0 °F 68% 30.08 in 10.0 mi South 3.5 mph - N/A   Clear
5:15 AM 49.1 °F 38.8 °F 68% 30.08 in 10.0 mi SSE 4.6 mph - N/A   Clear
5:35 AM 48.4 °F 38.8 °F 70% 30.07 in 10.0 mi SSE 5.8 mph - N/A   Clear
5:55 AM 48.2 °F 39.2 °F 71% 30.05 in 10.0 mi SSE 6.9 mph - N/A   Clear
6:15 AM 49.5 °F 39.2 °F 68% 30.07 in 10.0 mi SSE 6.9 mph - N/A   Clear
6:35 AM 50.0 °F 39.2 °F 66% 30.08 in 10.0 mi SSE 6.9 mph - N/A   Clear
6:55 AM 49.6 °F 39.7 °F 69% 30.08 in 10.0 mi SSE 6.9 mph - N/A   Clear
7:15 AM 50.9 °F 39.6 °F 65% 30.09 in 10.0 mi SSE 6.9 mph - N/A   Clear
7:35 AM 52.0 °F 40.3 °F 64% 30.09 in 10.0 mi SSE 9.2 mph - N/A   Clear
7:55 AM 53.8 °F 39.7 °F 59% 30.09 in 10.0 mi SSE 11.5 mph - N/A   Clear
8:15 AM 55.8 °F 39.4 °F 54% 30.09 in 10.0 mi SSE 9.2 mph - N/A   Clear
8:35 AM 58.1 °F 39.6 °F 50% 30.09 in 10.0 mi South 9.2 mph - N/A   Clear
8:55 AM 59.4 °F 39.6 °F 48% 30.09 in 10.0 mi South 9.2 mph - N/A   Clear
9:15 AM 61.3 °F 39.0 °F 44% 30.08 in 10.0 mi South 13.8 mph 17.3 mph N/A   Clear
9:35 AM 63.0 °F 39.7 °F 42% 30.08 in 10.0 mi South 11.5 mph 17.3 mph N/A   Clear
9:55 AM 64.4 °F 38.8 °F 39% 30.07 in 10.0 mi SSE 12.7 mph - N/A   Clear
10:15 AM 66.0 °F 39.7 °F 38% 30.07 in 10.0 mi SSE 10.4 mph - N/A   Clear
10:35 AM 66.7 °F 39.7 °F 37% 30.05 in 10.0 mi SSE 11.5 mph - N/A   Clear
10:55 AM 68.0 °F 39.4 °F 35% 30.06 in 10.0 mi SSE 11.5 mph - N/A   Clear
11:15 AM 70.0 °F 40.6 °F 34% 30.05 in 10.0 mi South 11.5 mph - N/A   Clear
11:35 AM 71.2 °F 40.1 °F 32% 30.05 in 10.0 mi SSW 9.2 mph - N/A   Clear
11:55 AM 72.3 °F 40.5 °F 32% 30.04 in 10.0 mi South 11.5 mph - N/A   Clear
12:15 PM 73.6 °F 41.0 °F 31% 30.03 in 10.0 mi SSE 11.5 mph - N/A   Clear
12:35 PM 75.2 °F 39.7 °F 28% 30.03 in 10.0 mi South 11.5 mph 17.3 mph N/A   Clear
12:55 PM 76.1 °F 39.7 °F 27% 30.02 in 10.0 mi South 13.8 mph - N/A   Clear
1:15 PM 76.8 °F 40.8 °F 27% 30.02 in 10.0 mi SSE 13.8 mph - N/A   Clear
1:35 PM 78.1 °F 39.4 °F 25% 30.01 in 10.0 mi South 16.1 mph 24.2 mph N/A   Clear
1:55 PM 79.0 °F 38.5 °F 23% 30.00 in 10.0 mi South 13.8 mph - N/A   Clear
2:15 PM 79.9 °F 37.4 °F 22% 29.99 in 10.0 mi South 15.0 mph 21.9 mph N/A   Clear
2:35 PM 80.6 °F 37.9 °F 22% 29.99 in 10.0 mi South 17.3 mph 21.9 mph N/A   Clear
3:35 PM 82.6 °F 34.9 °F 18% 29.97 in 10.0 mi South 15.0 mph 23.0 mph N/A   Clear
3:55 PM 83.1 °F 36.5 °F 19% 29.96 in 10.0 mi South 17.3 mph 23.0 mph N/A   Clear
4:15 PM 82.8 °F 38.1 °F 20% 29.95 in 10.0 mi SSW 13.8 mph 19.6 mph N/A   Clear
4:35 PM 83.5 °F 37.4 °F 19% 29.94 in 10.0 mi SSW 17.3 mph 20.7 mph N/A   Clear
4:55 PM 83.3 °F 37.4 °F 19% 29.93 in 10.0 mi SSW 15.0 mph 25.3 mph N/A   Clear
5:15 PM 83.3 °F 36.9 °F 19% 29.93 in 10.0 mi SSW 16.1 mph 25.3 mph N/A   Clear
5:35 PM 83.3 °F 41.4 °F 23% 29.93 in 10.0 mi SSW 19.6 mph 23.0 mph N/A   Clear
5:55 PM 82.6 °F 39.7 °F 22% 29.92 in 10.0 mi SSW 16.1 mph - N/A   Clear
6:35 PM 81.5 °F 41.9 °F 25% 29.91 in 10.0 mi SSW 17.3 mph 21.9 mph N/A   Clear
6:55 PM 80.6 °F 42.8 °F 26% 29.91 in 10.0 mi SSW 13.8 mph 23.0 mph N/A   Clear
7:15 PM 79.0 °F 45.5 °F 31% 29.90 in 10.0 mi South 9.2 mph - N/A   Clear
7:35 PM 77.9 °F 45.5 °F 32% 29.90 in 10.0 mi South 12.7 mph - N/A   Clear
7:55 PM 77.2 °F 45.9 °F 33% 29.90 in 10.0 mi South 10.4 mph - N/A   Clear
8:15 PM 76.5 °F 46.0 °F 34% 29.90 in 10.0 mi South 11.5 mph - N/A   Clear
8:35 PM 74.3 °F 47.1 °F 38% 29.90 in 10.0 mi South 9.2 mph - N/A   Clear
8:55 PM 73.6 °F 47.5 °F 39% 29.89 in 10.0 mi South 9.2 mph - N/A   Clear
9:15 PM 72.9 °F 48.4 °F 42% 29.90 in 10.0 mi South 8.1 mph - N/A   Clear
9:35 PM 72.0 °F 48.6 °F 43% 29.90 in 10.0 mi South 10.4 mph - N/A   Clear
9:55 PM 71.2 °F 49.1 °F 45% 29.90 in 10.0 mi South 9.2 mph - N/A   Clear
10:15 PM 70.3 °F 49.5 °F 47% 29.90 in 10.0 mi South 9.2 mph - N/A   Clear
10:35 PM 70.2 °F 49.3 °F 47% 29.90 in 10.0 mi South 8.1 mph - N/A   Clear
10:55 PM 70.9 °F 49.1 °F 46% 29.90 in 10.0 mi South 9.2 mph - N/A   Clear
11:15 PM 71.1 °F 49.1 °F 46% 29.89 in 10.0 mi South 9.2 mph - N/A   Clear
11:35 PM 70.0 °F 49.3 °F 48% 29.89 in 10.0 mi South 6.9 mph - N/A   Clear
11:55 PM 69.4 °F 50.0 °F 50% 29.89 in 10.0 mi South 6.9 mph - N/A   Clear